[Date Prev][Date Next][Thread Prev][Thread Next] - [Date Index][Thread Index][Author Index]

2 Line ISS Keps 1-2



ISS
1 25544U 98067A   05001.49443590  .00025128  00000-0  19077-3 0  4916
2 25544  51.6396  33.2796 0003650 151.7907   0.4399 15.72162521349470
----
Via the sarex mailing list at AMSAT.ORG courtesy of AMSAT-NA.
To unsubscribe, send "unsubscribe sarex" to Majordomo@amsat.org



AMSAT Top AMSAT Home